DW5450 Weather Reports


Display with metric or nautical units.
time (UTC)temp
F
wind
direction
speed
MPH
gust
MPH
rain 1hr
in
rain 24hr
in
rain mn
in
humidity
%
barometer
mb
20260505223025 82 179 4.0 10.0 0.00 0.00 0.00 69 1010.4
20260505221524 83 137 3.0 8.0 0.00 0.00 0.00 68 1010.6
20260505220030 83 126 1.0 9.0 0.00 0.00 0.00 68 1010.6
20260505214521 83 196 3.0 9.0 0.00 0.00 0.00 67 1010.9
20260505213022 82 118 4.0 10.0 0.00 0.00 0.00 69 1011.2
20260505211519 82 101 4.0 13.0 0.00 0.00 0.00 68 1011.3
20260505210018 82 169 2.0 12.0 0.00 0.00 0.00 69 1011.5
20260505204518 82 146 4.0 12.0 0.00 0.00 0.00 68 1011.6
20260505203020 83 131 3.0 12.0 0.00 0.00 0.00 69 1011.7
20260505201516 82 180 5.0 12.0 0.00 0.00 0.00 67 1011.8
20260505200016 83 167 4.0 9.0 0.00 0.00 0.00 67 1011.9
20260505194515 83 153 4.0 8.0 0.00 0.00 0.00 66 1012.0
20260505193014 83 96 2.0 10.0 0.00 0.00 0.00 68 1012.0
20260505191514 82 152 3.0 12.0 0.00 0.00 0.00 69 1012.1
20260505190016 83 122 4.0 10.0 0.00 0.00 0.00 68 1012.2
20260505184511 82 115 4.0 9.0 0.00 0.00 0.00 69 1012.4
20260505183011 82 167 4.0 9.0 0.00 0.00 0.00 70 1012.6
20260505181509 81 132 3.0 10.0 0.00 0.00 0.00 72 1012.9
20260505180021 81 158 4.0 10.0 0.00 0.00 0.00 72 1013.0
20260505174508 81 111 4.0 10.0 0.00 0.00 0.00 73 1013.1
20260505173008 81 129 4.0 11.0 0.00 0.00 0.00 73 1013.1
20260505171507 81 128 4.0 11.0 0.00 0.00 0.00 71 1013.0
20260505170006 81 180 4.0 12.0 0.00 0.00 0.00 71 1013.0
20260505164505 82 164 4.0 9.0 0.00 0.00 0.00 69 1013.0
20260505163003 81 139 3.0 8.0 0.00 0.00 0.00 69 1013.3
20260505161502 81 158 4.0 7.0 0.00 0.00 0.00 68 1012.9
20260505153052 78 348 0.0 2.0 0.00 0.00 0.00 74 1012.9
20260505151548 76 348 0.0 3.0 0.00 0.00 0.00 72 1012.9
20260505124526 64 299 0.0 3.0 0.00 0.00 0.00 86 1012.1
20260505123031 64 299 1.0 4.0 0.00 0.00 0.00 86 1011.9
20260505121522 64 299 0.0 3.0 0.00 0.00 0.00 87 1011.7
20260505120024 64 299 0.0 2.0 0.00 0.00 0.00 87 1011.6
20260505114521 64 299 0.0 4.0 0.00 0.00 0.00 87 1011.4
20260505113022 64 299 0.0 4.0 0.00 0.00 0.00 87 1011.5
20260505111522 65 299 0.0 4.0 0.00 0.00 0.00 87 1011.6
20260505101530 64 272 0.0 2.0 0.00 0.00 0.00 88 1011.2
20260505100038 64 272 0.0 1.0 0.00 0.00 0.00 88 1011.2
20260505094516 65 272 0.0 3.0 0.00 0.00 0.00 88 1011.0
20260505093021 64 165 0.0 2.0 0.00 0.00 0.00 88 1011.2
20260505091518 64 165 0.0 2.0 0.00 0.00 0.00 88 1011.2
20260505090013 64 165 0.0 1.0 0.00 0.00 0.00 87 1011.3
20260505084511 65 165 0.0 0.0 0.00 0.00 0.00 87 1011.4
20260505083009 65 165 0.0 2.0 0.00 0.00 0.00 87 1011.3
20260505081510 66 165 0.0 0.0 0.00 0.00 0.00 87 1011.5
20260505080005 66 165 0.0 0.0 0.00 0.00 0.00 87 1011.7
20260505074503 66 165 0.0 1.0 0.00 0.00 0.00 87 1011.6
20260505073007 66 165 0.0 1.0 0.00 0.00 0.00 87 1011.6
20260505071600 67 165 0.0 0.0 0.00 0.00 0.00 86 1011.5
20260505070100 67 165 0.0 1.0 0.00 0.00 0.00 86 1011.4
20260505064557 68 165 0.0 0.0 0.00 0.00 0.00 86 1011.5
20260505063112 68 165 0.0 0.0 0.00 0.00 0.00 86 1011.4
20260505061555 68 165 0.0 0.0 0.00 0.00 0.00 86 1011.5
20260505060055 69 165 0.0 0.0 0.00 0.00 0.00 85 1011.6
20260505054554 69 165 0.0 0.0 0.00 0.00 0.00 85 1011.6
20260505053054 70 165 0.0 0.0 0.00 0.00 0.00 85 1011.7
20260505051554 70 165 0.0 0.0 0.00 0.00 0.00 85 1011.8
20260505041551 72 165 0.0 0.0 0.00 0.00 0.00 83 1011.5
20260505040051 72 165 0.0 0.0 0.00 0.00 0.00 83 1011.6
20260505034552 73 165 0.0 1.0 0.00 0.00 0.00 82 1011.5
20260505033052 73 165 0.0 0.0 0.00 0.00 0.00 82 1011.4
20260505031552 74 165 0.0 0.0 0.00 0.00 0.00 81 1011.3
20260505030049 74 165 0.0 0.0 0.00 0.00 0.00 81 1011.2
20260505024552 74 165 0.0 0.0 0.00 0.00 0.00 81 1011.1
20260505023051 74 165 0.0 1.0 0.00 0.00 0.00 80 1011.0
20260505021547 75 159 0.0 2.0 0.00 0.00 0.00 80 1010.8
20260505020049 75 167 0.0 4.0 0.00 0.00 0.00 79 1010.7
20260505014552 76 128 1.0 4.0 0.00 0.00 0.00 78 1010.6
20260505013044 76 147 0.0 4.0 0.00 0.00 0.00 77 1010.5
20260505011546 77 168 1.0 7.0 0.00 0.00 0.00 76 1010.4
20260505010103 77 170 1.0 5.0 0.00 0.00 0.00 75 1010.4
20260505004543 77 142 1.0 6.0 0.00 0.00 0.00 75 1010.4
20260505003045 78 159 3.0 6.0 0.00 0.00 0.00 74 1010.4
20260505001540 78 169 4.0 8.0 0.00 0.00 0.00 73 1010.5
20260505000045 78 167 5.0 8.0 0.00 0.00 0.00 72 1010.6
20260504234539 79 121 4.0 10.0 0.00 0.00 0.00 71 1010.7
20260504233039 80 160 4.0 10.0 0.00 0.00 0.00 70 1010.7
20260504231543 80 120 3.0 9.0 0.00 0.00 0.00 69 1010.8
20260504230042 81 178 3.0 14.0 0.00 0.00 0.00 69 1010.9
20260504224536 80 173 5.0 9.0 0.00 0.00 0.00 68 1010.9